World > North America > United States > Ohio

Edenton, Ohio Regional Weather

Lat: 39.23N, Lon: 84.05W
Wx Zone: OHZ078
Feedback

Edenton, OH Regional Weather

Expires:201910160500;;776680
ASUS41 KCLE 160412
RWRCLE
OHIO REGIONAL WEATHER ROUNDUP
NATIONAL WEATHER SERVICE WILMINGTON, OH
1200 AM EDT WED OCT 16 2019

NOTE: "FAIR" INDICATES FEW OR NO CLOUDS BELOW 12,000 FEET WITH NO
SIGNIFICANT WEATHER AND/OR OBSTRUCTIONS TO VISIBILITY.


OHZ042-051>053-060>062-070>072-077>081-160500-
  SOUTHWEST OHIO
  
CITY           SKY/WX    TMP DP  RH WIND       PRES   REMARKS
CINC-COVINGTON TSTM      64  57  78 SW10      29.79S                  
CINC-LUNKEN    MOCLDY    66  57  72 S13       29.79F                  
HAMILTON       CLOUDY    67  57  70 VRB5      29.79S                  
DAYTON         MOCLDY    67  56  67 SW16      29.77S                  
WRIGHT-PAT AFB MOCLDY    65  55  69 S9        29.76S                  
DAYTON GENERAL CLOUDY    68  55  63 S10       29.77F                  
WILMINGTON     MOCLDY    62  55  77 S9        29.79F                  
$$


SKY/WX - Weather  TMP - Temperature  DP - Dew Point  RH - Relative Humidity
WIND - Wind Direction/Speed PRES - Barometric Pressure VSB - Visibility
WCI - Wind Chill Index E13G22 Wind - East Wind 13 mph/Gusts of 22 mph